CST,Max TemperatureF,Mean TemperatureF,Min TemperatureF,Max Dew PointF,MeanDew PointF,Min DewpointF,Max Humidity, Mean Humidity, Min Humidity, Max Sea Level PressureIn, Mean Sea Level PressureIn, Min Sea Level PressureIn, Max VisibilityMiles, Mean VisibilityMiles, Min VisibilityMiles, Max Wind SpeedMPH, Mean Wind SpeedMPH, Max Gust SpeedMPH,PrecipitationIn, CloudCover, Events, WindDirDegrees
2012-11-1,74,57,40,41,38,33,79,55,31,30.06,30.00,29.93,10,10,9,8,2,17,0.00,0,,226
2012-11-2,77,60,43,52,46,41,89,64,38,30.01,29.94,29.89,10,10,10,12,5,15,0.00,0,,128
2012-11-3,70,56,42,54,43,37,93,66,39,30.16,30.03,29.91,10,10,10,21,8,32,0.00,0,,296
2012-11-4,62,48,34,39,36,33,100,68,36,30.24,30.17,30.10,10,8,2,10,3,13,0.00,0,,133
2012-11-5,58,52,45,45,42,36,92,73,54,30.08,30.01,29.95,10,9,3,16,8,22,0.04,8,Rain-Thunderstorm,325
2012-11-6,60,52,43,41,38,32,92,66,40,30.10,30.05,29.98,10,10,10,14,7,21,0.00,4,,298
2012-11-7,58,48,37,32,30,27,76,56,35,30.16,30.11,30.04,10,10,10,21,7,29,0.00,0,,312
2012-11-8,67,50,33,39,34,30,89,59,29,30.19,30.11,30.03,10,10,10,20,11,24,0.00,0,,143
2012-11-9,72,62,52,55,49,40,78,66,53,30.05,29.99,29.95,10,10,10,20,13,30,0.00,0,,155
2012-11-10,75,67,59,54,51,47,75,57,38,30.04,29.96,29.87,10,10,10,26,15,37,0.00,0,,172
2012-11-11,68,51,34,58,48,32,100,84,67,30.20,29.95,29.85,10,6,1,26,13,36,0.74,8,Rain,272
2012-11-12,49,38,27,30,22,18,96,64,31,30.49,30.40,30.21,10,10,10,16,6,23,0.00,1,,290
2012-11-13,53,42,30,29,24,21,82,56,30,30.54,30.46,30.39,10,10,10,9,2,12,0.00,0,,184
2012-11-14,55,43,31,29,26,22,85,57,28,30.46,30.39,30.32,10,10,10,7,2,10,0.00,0,,132
2012-11-15,59,44,29,30,27,24,85,57,28,30.38,30.34,30.31,10,10,10,7,1,13,0.00,0,,120
2012-11-16,59,46,32,31,28,25,75,52,28,30.45,30.41,30.38,10,10,4,9,3,16,0.00,0,,168
2012-11-17,62,47,31,31,28,23,85,54,23,30.47,30.40,30.35,10,10,10,12,6,15,0.00,0,,128
2012-11-18,65,49,32,35,29,26,75,50,24,30.37,30.31,30.24,10,10,10,16,8,18,0.00,1,,152
2012-11-19,55,50,45,47,42,35,93,74,54,30.27,30.21,30.16,10,9,3,15,7,17,0.19,5,Rain,151
2012-11-20,68,57,46,50,44,40,86,62,37,30.21,30.16,30.11,10,10,10,14,7,20,0.00,0,,299
2012-11-21,68,54,40,45,39,32,100,63,26,30.29,30.23,30.15,10,8,2,12,4,16,0.00,0,,155
2012-11-22,69,58,47,52,44,38,71,54,37,30.13,30.08,30.00,10,10,2,16,8,22,0.13,4,Rain-Thunderstorm,178
2012-11-23,60,45,30,49,29,20,77,59,40,30.42,30.33,30.17,10,10,10,21,9,33,0.00,1,,315
2012-11-24,49,38,26,22,18,12,69,48,27,30.41,30.26,30.04,10,10,10,13,5,17,0.00,0,,187
2012-11-25,68,52,36,38,29,21,65,46,27,30.04,29.96,29.88,10,10,10,14,6,21,0.00,0,,161
2012-11-26,51,44,37,41,35,28,76,69,61,30.34,30.11,29.95,10,10,4,16,6,24,0.03,7,Rain,39
2012-11-27,47,36,25,27,22,19,92,63,34,30.46,30.37,30.33,10,10,9,9,3,16,0.00,0,,324
2012-11-28,55,42,28,30,28,24,85,62,38,30.46,30.37,30.26,10,10,10,12,5,15,0.00,0,,145
2012-11-29,66,50,33,33,30,28,82,54,26,30.26,30.18,30.12,10,10,10,16,10,20,0.00,0,,141
2012-11-30,70,56,42,54,43,31,86,67,47,30.15,30.11,30.06,10,10,8,15,8,18,0.00,1,,155